Theta_e
341 342 338 337 343 343 345 345 338 327 329 334 333 344 346 350 350 349 350 345 346 344 342 340 342 342 348 348 344 341 340 340 340 338 337 336 336 335
340 341 340 336 341 342 342 345 342 338 329 336 340 343 345 348 349 346 342 341 341 339 336 336 337 338 337 336 336 336 335 334 332 330 329 329 329 330
341 340 340 340 340 342 341 342 339 340 333 335 340 344 341 342 343 342 337 330 328 330 328 327 327 327 327 328 327 327 327 326 326 326 325 325 324 323
337 336 334 338 338 340 342 340 342 342 336 332 336 339 339 342 338 335 334 327 323 326 326 326 324 323 322 321 319 318 318 318 319 319 320 319 318 318
329 328 329 331 332 332 337 337 339 340 339 334 332 338 337 337 339 335 330 329 324 326 326 323 322 320 319 317 316 314 312 312 312 313 314 314 313 313
325 325 325 325 325 327 332 332 335 334 334 332 330 331 331 335 337 333 327 327 321 321 326 321 321 321 320 318 318 316 312 310 309 309 309 309 309 310
322 322 323 324 323 324 326 322 325 330 330 328 328 328 329 330 329 330 330 328 324 322 321 320 319 319 318 319 317 315 313 312 309 307 307 307 306 307
319 318 317 316 317 319 320 321 320 321 328 327 328 326 327 326 325 322 323 319 316 323 320 320 322 321 318 317 316 315 312 310 308 308 307 306 305 306
324 323 321 317 318 315 320 318 315 318 324 326 322 320 318 320 321 321 318 318 316 318 317 313 320 318 316 314 315 313 310 309 308 308 307 306 305 304
320 319 316 313 314 319 316 311 307 307 310 311 308 308 309 312 315 317 317 317 319 320 319 310 312 310 313 314 314 312 310 309 308 307 306 305 304 303
310 310 311 310 312 316 315 311 309 307 310 311 310 309 310 311 313 313 309 309 308 312 313 311 309 309 310 309 311 312 311 310 309 308 307 306 304 303
307 305 307 306 306 309 316 315 309 308 313 312 311 311 313 310 313 312 309 306 306 306 308 306 307 307 302 310 311 309 309 309 307 307 307 306 306 301
306 305 304 303 301 301 304 307 307 311 311 308 308 309 311 312 311 311 310 307 305 305 306 306 304 303 303 302 305 307 307 305 307 306 304 303 303 304
302 302 302 300 299 300 303 302 304 305 308 307 307 309 308 304 305 308 309 308 309 307 309 306 303 301 299 298 298 303 304 303 303 304 307 306 304 305
303 302 301 299 300 302 302 304 305 304 303 303 303 303 305 306 306 308 309 310 310 310 308 309 304 303 301 299 297 298 298 300 303 303 303 302 301 302
304 304 304 304 304 304 306 307 305 304 303 302 302 302 304 302 301 300 299 300 298 301 309 308 307 304 300 298 298 297 299 296 300 303 301 300 300 302
301 305 305 305 305 305 304 304 301 303 301 301 300 299 298 297 297 297 298 299 298 297 299 305 306 305 302 299 297 298 298 297 299 300 298 296 299 299
305 305 305 304 301 300 300 302 302 301 300 300 299 298 297 296 295 295 298 298 296 298 298 300 299 298 298 300 304 296 296 296 298 299 300 294 295 299
304 303 303 303 302 302 302 302 300 302 303 302 299 299 298 297 296 295 296 296 296 296 297 300 298 295 291 289 297 302 296 297 297 296 296 295 295 298
303 302 303 304 305 304 303 301 300 301 299 299 300 299 298 296 295 295 295 296 295 295 296 298 298 296 293 292 293 296 302 298 296 295 295 296 299 304
302 302 303 303 302 301 302 303 302 300 299 299 299 297 296 295 295 295 295 294 295 296 295 295 297 301 299 299 295 295 298 300 300 297 296 295 294 293
301 301 303 302 303 302 303 302 301 300 299 298 297 297 297 296 294 294 295 295 295 295 295 296 299 298 297 295 293 295 297 297 300 302 302 300 294 289
301 300 299 302 303 303 301 301 300 299 298 297 296 296 296 294 295 295 294 295 295 294 295 293 294 295 294 295 295 294 298 295 295 295 298 303 302 301
Wind_Speed
3 4 3 3 4 4 4 3 1 2 2 2 1 3 1 5 7 6 7 11 9 9 8 7 7 7 6 5 4 4 3 2 2 2 4 4 4 5
3 5 2 2 4 5 9 1 2 1 2 0 3 4 7 7 8 9 9 11 8 9 8 8 8 8 7 5 5 6 7 8 10 9 9 10 10 10
4 4 5 6 5 4 3 2 1 2 2 1 1 3 5 6 6 7 7 6 6 11 12 12 12 11 12 12 12 13 14 14 13 12 12 11 11 11
6 6 8 6 6 6 3 4 3 2 3 4 2 2 3 5 5 6 4 7 6 10 12 12 13 13 14 14 14 13 13 13 12 12 11 11 11 10
9 9 8 8 8 8 7 6 5 3 3 4 3 1 2 2 4 5 6 5 5 12 13 14 13 13 13 13 13 13 12 11 12 11 11 10 9 8
9 7 7 8 7 7 7 7 5 4 4 2 3 3 2 2 2 5 3 3 4 5 7 9 11 12 12 13 13 13 11 11 10 10 9 8 8 7
7 6 6 8 13 11 5 8 9 5 3 2 3 3 4 3 2 1 3 5 3 3 4 4 4 4 5 10 12 13 11 10 9 6 5 6 6 8
6 6 5 8 10 11 11 15 13 6 2 5 2 5 6 3 3 3 3 3 2 4 3 3 6 5 6 5 12 12 11 9 6 3 3 5 7 9
7 6 5 4 3 6 11 16 16 18 17 10 9 6 7 7 5 5 5 4 3 3 2 2 2 2 5 6 12 12 11 9 6 3 4 4 5 8
9 9 8 6 7 4 11 10 10 13 13 10 11 9 7 7 6 3 1 1 3 3 3 0 3 3 4 5 13 12 10 8 6 6 7 7 6 9
11 12 9 9 11 11 10 9 8 8 10 13 12 11 10 9 9 6 5 4 3 2 6 3 1 2 1 3 7 12 10 10 10 11 10 11 7 9
9 10 19 12 18 15 9 8 9 7 6 3 4 3 3 5 9 7 5 4 3 0 4 4 4 4 3 1 4 4 6 12 12 9 12 9 8 4
7 7 8 16 15 16 13 8 5 3 5 2 3 3 2 3 3 4 4 4 5 4 3 4 3 4 2 4 3 3 2 2 4 5 14 10 13 7
6 5 7 13 14 13 9 11 11 9 5 4 4 2 4 6 4 3 2 1 2 1 1 2 2 3 3 4 3 4 4 4 3 3 4 4 8 8
3 6 6 5 8 6 6 3 4 2 3 5 4 4 3 2 2 4 4 6 5 4 4 5 1 2 3 4 4 4 4 4 3 5 4 4 3 4
6 3 3 5 6 5 3 4 4 3 3 3 4 4 4 4 3 3 3 3 4 2 5 6 4 2 2 3 3 4 5 2 3 3 2 3 3 4
3 3 2 1 2 2 2 4 4 4 4 3 2 3 3 3 3 4 3 3 3 3 1 3 5 6 5 6 3 4 3 4 4 3 2 3 2 2
2 3 3 3 4 4 4 3 4 6 3 4 4 3 3 3 2 4 4 2 3 3 2 2 2 3 5 3 1 2 3 3 3 4 3 3 4 4
3 4 4 3 2 2 1 2 3 2 2 3 3 3 3 3 4 4 3 3 3 4 4 3 0 4 3 6 1 1 3 2 2 3 3 4 3 6
5 4 4 4 3 2 4 5 5 4 5 4 4 3 4 3 4 4 4 3 3 4 6 3 5 3 2 4 4 7 7 2 1 3 4 3 6 8
4 4 4 3 4 5 4 3 2 3 1 3 3 4 4 3 4 4 4 2 2 5 3 3 3 5 3 3 6 3 2 7 8 4 3 4 4 3
4 4 3 5 2 3 1 3 3 1 4 3 4 4 3 4 4 4 4 4 3 3 3 4 3 3 2 3 5 5 2 4 9 17 18 12 4 3
5 5 5 3 1 4 4 3 3 2 4 4 4 4 4 4 4 4 5 5 4 4 4 4 4 4 4 4 5 5 2 3 4 7 6 13 19 16
Wind_Direction
212 172 220 269 319 310 224 238 227 11 298 280 259 65 206 121 139 160 156 170 164 168 180 189 188 187 174 175 167 164 158 148 93 77 82 70 44 27
183 241 220 271 284 343 317 101 336 152 152 132 21 28 26 92 81 86 90 89 109 125 123 117 110 116 124 123 107 91 83 82 81 75 74 76 73 63
166 206 225 256 266 198 295 8 30 332 98 63 86 55 55 93 94 92 86 87 83 89 90 87 87 91 93 92 88 85 81 75 73 73 68 64 58 56
71 63 44 6 332 348 323 334 39 38 100 132 77 113 90 97 158 113 146 104 103 93 97 94 90 90 92 92 85 81 78 74 70 64 59 62 58 49
54 57 37 36 26 357 359 17 3 1 57 130 160 119 125 175 101 79 93 112 104 114 95 100 108 109 109 106 100 92 85 75 66 60 53 48 42 31
52 45 43 42 41 18 344 11 15 323 23 72 170 134 125 152 133 133 134 153 148 120 113 132 131 130 125 116 108 102 95 86 77 66 51 32 16 5
66 55 44 49 54 52 34 1 355 334 7 341 229 189 168 184 130 70 187 126 53 65 128 158 150 146 142 127 121 115 104 94 90 68 31 7 353 337
98 92 86 77 78 89 83 55 34 345 349 212 153 93 39 66 38 29 36 84 105 12 359 318 163 176 159 138 120 131 124 116 101 59 342 333 327 314
143 154 150 130 195 142 68 52 29 17 47 49 72 58 66 25 33 45 39 23 74 213 59 303 48 105 99 135 151 144 149 151 154 211 268 290 293 297
43 62 72 45 6 58 87 72 57 45 43 56 62 53 48 14 15 358 58 274 267 71 101 8 28 2 2 126 160 165 171 178 185 227 256 268 279 291
54 40 50 36 26 72 96 99 86 82 62 73 84 87 68 48 35 25 10 9 354 52 10 20 166 229 306 269 169 187 204 203 205 227 243 250 244 269
63 52 47 55 48 47 60 80 70 38 44 64 92 58 64 61 54 53 2 340 352 7 15 352 1 9 329 18 129 191 235 210 219 230 244 252 247 250
70 57 37 46 51 51 51 61 75 33 61 38 3 353 247 182 104 90 64 339 357 32 16 12 352 331 305 319 341 330 351 121 229 239 242 227 243 202
63 50 55 52 41 39 43 21 9 5 346 324 279 243 63 47 19 23 113 251 302 239 67 113 298 9 359 318 310 335 355 352 323 286 22 62 239 220
79 99 94 76 80 60 51 10 64 47 3 32 42 45 44 89 251 274 253 218 218 205 196 200 103 7 302 286 326 328 351 301 323 61 31 12 339 326
146 178 209 199 218 125 52 49 29 21 27 21 22 16 8 24 6 4 347 328 319 253 181 169 184 206 281 298 296 294 279 315 336 97 45 342 324 314
322 194 193 142 114 135 124 96 59 23 27 7 18 356 349 8 18 358 318 323 332 338 80 194 209 229 233 224 250 274 1 5 344 358 15 290 270 320
236 117 84 71 56 33 33 36 86 50 10 344 13 33 357 331 3 308 278 348 312 318 351 15 1 338 343 336 139 23 22 315 321 323 334 346 306 280
128 102 97 89 126 162 117 46 35 100 152 282 22 356 0 349 343 317 342 323 14 358 326 292 225 80 19 325 354 283 250 293 325 335 319 303 300 295
93 61 57 24 16 46 36 36 30 348 31 10 315 10 2 357 317 331 329 24 23 324 293 314 78 75 350 282 285 273 221 209 280 285 314 312 278 299
60 110 95 44 40 35 18 12 283 87 5 297 357 19 352 336 327 327 326 254 230 267 307 355 150 187 233 276 280 285 166 212 228 226 247 271 288 316
33 27 76 105 104 112 356 0 312 264 157 18 24 352 351 326 333 334 321 326 307 326 4 306 353 320 276 271 304 311 311 203 247 255 243 219 216 239
40 30 337 70 109 101 71 310 320 11 69 44 8 346 344 331 336 347 332 323 333 6 308 9 344 334 310 290 288 280 290 41 360 331 324 225 232 244